星链-37747(STARLINK-37747)

导读

STARLINK-37747(NORAD编号69232)是美国太空探索技术公司(SpaceX)星链(Starlink)卫星互联网星座的一员,属于第二代星链卫星(Starlink V2),服务全球低轨宽带通信覆盖。该卫星由SpaceX猎鹰9号运载火箭发射,运行在近地轨道,主要承担为偏远地区、海洋、航空等场景提供高速互联网接入服务,补充星链星座容量,助力实现全球覆盖的组网目标。目前卫星在轨正常运行,是SpaceX大规模星座部署的组成部分,持续推进星链计划全球互联愿景。

Basic Information
目录编号:
69232
目录名称:
STARLINK-37745
国际标识:
2026-115X
轨道中心:
EARTH
卫星名称:
星链-37747
卫星全名:
星链-37747(STARLINK-37747)
卫星状态:
在轨 (已飞行110 天)
发射日期:
2026-05-26 UTC
国别 :
美国 (US)
星等 :
--
This satellite is enrolled in the Space Conjunction Data Service (SCDS) and the current flight risk assessment level is: No High Risk
Orbit Information
数据来源 国际轨道数据
星历时间: 2026-09-13T15:31:29+0800
5小时前
查看轨道信息
半长轴: 6843.64km
偏心率: 0.0001832
轨道倾角: 97.284°
近地点辐角 95.464°
升交点赤经 272.584°
平近点角 264.681°
近地点: 464.249km
远地点: 466.757km
周期: 93.905分钟
每日圈数: 15.334586
Detailed Information
固有亮度:
5
最大亮度:
2.5
卫星平台:
Starlink V1.0
覆盖范围:
全球
运营商:
太空探索技术公司
运营商所在国:
美国
制造商(研发单位):
太空探索技术公司
制造商所在国:
美国
使用方式:
暂无
Satellite Introduction
Starlink 计划是 SpaceX 推出的全球卫星互联网项目,通过发射低轨道卫星,为全球尤其是偏远地区提供高速、低延迟的互联网服务。自 2019 年起,Starlink 已部署数千颗卫星,旨在缩小全球数字鸿沟,推动互联网普及。该项目还为军事、航空等行业提供通信支持,带来广泛经济效益。
2D Orbit Map
3D Orbit Map
Orbit Altitude Analysis Chart
Orbit Inclination Analysis Chart
Orbit Comprehensive Analysis Chart
View Comprehensive Chart
Conjunction Data List
Event ID Objects TCA Miss Dist (km) Collision Risk Probability Collision Risk Index (CRI) Action
CDM_260913-085104-844906-923221
2026-09-13T
08:51:34+0000
2.322 km
极远距离
1.839646E-6 低风险 0.4
CDM_260914-105404-941406-923222
2026-09-14T
10:54:15+0000
2.806 km
极远距离
1.458086E-6 低风险 0.38
CDM_260915-123706-542106-923221
2026-09-15T
12:37:12+0000
2.923 km
极远距离
1.363095E-6 低风险 0.38
CDM_260914-094806-383306-923221
HERMES 4 (63833)
2026-09-14T
09:48:48+0000
2.873 km
极远距离
1.327946E-6 低风险 0.37
CDM_260914-161206-533906-923221
2026-09-14T
16:12:14+0000
2.975 km
极远距离
1.29627E-6 低风险 0.37
CDM_260915-073106-491006-923221
2026-09-15T
07:31:15+0000
2.826 km
极远距离
1.236819E-6 低风险 0.37
CDM_260913-173405-212506-923221
2026-09-13T
17:34:39+0000
2.657 km
极远距离
9.962409E-7 极低风险 0.35
CDM_260914-215704-740506-923221
2026-09-14T
21:57:08+0000
2.725 km
极远距离
9.02393E-7 极低风险 0.34
Miss Distance Evolution Trend with All Objects
Collision Probability Evolution Trend with All Objects